Probability
0 0 0 0 0 0 0 0 0 0 0 0 0 0 0 0 0 0 0 0 0 0 0 0 0 0 0 0 0 0 0 0 0 0 0 0 0 0 0 0 0 0 0
0 0 0 0 0 0 0 0 0 0 0 0 0 0 0 0 0 0 0 0 0 0 0 0 0 0 0 0 0 0 0 0 0 0 0 0 0 0 0 0 0 0 0
0 0 0 0 0 0 0 0 0 0 0 0 0 0 0 0 0 0 0 0 0 0 0 0 0 0 0 0 0 0 0 0 0 0 0 0 0 0 0 0 0 0 0
0 0 0 0 0 0 0 0 0 0 0 0 0 0 0 0 0 0 0 0 0 0 0 0 0 0 0 0 0 0 0 0 0 0 0 0 0 0 0 0 0 0 0
0 0 0 0 0 0 0 0 0 0 0 0 0 0 0 0 0 0 0 0 0 0 0 0 0 0 0 0 0 0 0 0 0 0 0 0 0 0 0 0 0 0 0
0 0 0 0 0 0 0 0 0 0 0 0 0 0 0 0 0 0 0 0 0 0 0 0 0 0 0 0 0 0 0 0 0 0 0 0 0 0 0 0 0 0 0
0 0 0 0 0 0 0 0 0 0 0 0 0 0 0 0 0 0 0 0 0 0 0 0 0 0 0 0 0 0 0 0 0 0 0 0 0 0 0 0 0 0 0
0 0 0 0 0 0 0 0 0 0 0 0 0 0 0 0 0 0 0 0 0 0 0 0 0 0 0 0 0 0 0 0 0 0 0 0 0 0 0 0 0 0 0
0 0 0 0 0 0 0 0 0 0 0 0 0 0 0 0 0 0 0 0 0 0 0 0 0 0 0 0 0 0 0 0 0 0 0 0 0 0 0 0 0 0 0
0 0 0 0 0 0 0 0 0 0 0 0 0 0 0 0 0 0 0 0 0 0 0 0 0 0 0 0 0 0 0 0 0 0 0 0 0 0 0 0 0 0 0
0 0 0 0 0 0 0 0 0 0 0 0 0 0 0 0 0 0 0 0 0 0 0 0 0 0 0 0 0 0 0 0 0 0 0 0 0 0 0 0 0 0 0
0 0 0 0 0 0 0 0 0 0 0 0 0 0 0 0 0 0 0 0 0 0 0 0 0 0 0 0 0 0 0 0 0 0 0 0 0 0 0 0 0 0 0
0 0 0 0 0 0 0 0 0 0 0 0 0 0 0 0 0 0 0 0 0 0 0 0 0 0 0 0 0 0 0 0 0 0 0 0 0 0 0 0 0 0 0
0 0 0 0 0 0 0 0 0 0 0 0 0 0 0 0 0 0 0 0 0 0 0 0 0 0 0 0 0 0 0 0 0 0 0 0 0 0 0 0 0 0 0
0 0 0 0 0 0 0 0 0 0 0 0 0 0 0 0 0 0 0 0 0 0 0 0 0 0 0 0 0 0 0 0 0 0 0 0 0 0 0 0 0 0 0
0 0 0 0 0 0 0 0 0 0 0 0 0 0 0 0 0 0 0 0 0 0 0 0 0 0 0 0 0 0 0 0 0 0 0 0 0 0 0 0 0 0 0
0 0 0 0 0 0 0 0 0 0 0 0 0 0 0 0 0 0 0 0 0 0 0 0 0 0 0 0 0 0 0 0 0 0 0 0 0 0 0 0 0 0 0
0 0 0 0 0 0 0 0 0 0 0 0 0 0 0 0 0 0 0 0 0 0 0 0 0 0 0 0 0 0 0 0 0 0 0 0 0 0 0 0 0 0 0
0 0 0 0 0 0 0 0 0 0 0 0 0 0 0 0 0 0 0 0 0 0 0 0 0 0 0 0 0 0 0 0 0 0 0 0 0 0 0 0 0 0 0
0 0 0 0 0 0 0 0 0 0 0 0 0 0 0 0 0 0 0 0 0 0 0 0 0 0 0 0 0 0 0 0 0 0 0 0 0 0 0 0 0 0 0
0 0 0 0 0 0 0 0 0 0 0 0 0 0 0 0 0 0 0 0 0 0 0 0 0 0 0 0 0 0 0 0 0 0 0 0 0 0 0 0 0 0 0
0 0 0 0 0 0 0 0 0 0 0 0 0 0 0 0 0 0 0 0 0 0 0 0 0 0 0 0 0 0 0 0 0 0 0 0 0 0 0 0 0 0 0
0 0 0 0 0 0 0 0 0 0 0 0 0 0 0 0 0 0 0 0 0 0 0 0 0 0 0 0 0 0 0 0 0 0 0 0 0 0 0 0 0 0 0
0 0 0 0 0 0 0 0 0 0 0 0 0 0 0 0 0 0 0 0 0 0 0 0 0 0 0 0 0 0 0 0 0 0 0 0 0 0 0 0 0 0 0
0 0 0 0 0 0 0 0 0 0 0 0 0 0 0 0 0 0 0 0 0 0 0 0 0 0 0 0 0 0 0 0 0 0 0 0 0 0 0 0 0 0 0
0 0 0 0 0 0 0 0 0 0 0 0 0 0 0 0 0 0 0 0 0 0 0 0 0 0 0 0 0 0 0 0 0 0 0 0 0 0 0 0 0 0 0
Wind_Speed
3 3 3 3 3 3 2 2 2 1 1 1 0 0 1 1 2 1 2 2 2 2 3 3 3 3 2 2 2 2 2 1 2 3 2 3 4 5 5 5 5 5 6
4 3 3 3 3 3 3 3 2 2 2 1 1 0 0 1 1 1 1 1 1 2 2 2 2 2 3 2 2 2 2 2 1 3 3 3 4 5 5 5 6 6 5
3 3 3 3 3 3 3 3 3 3 2 2 2 1 1 1 0 0 0 0 1 1 1 1 2 2 2 2 2 2 2 2 1 2 3 3 3 4 5 5 5 4 6
3 4 4 4 4 4 3 3 3 3 3 3 3 2 2 1 1 1 1 0 0 0 0 1 1 1 2 2 2 2 2 2 2 2 3 3 3 3 3 5 5 4 6
3 4 5 4 4 4 3 3 3 3 4 3 3 3 2 2 2 2 1 1 1 1 1 1 1 0 1 1 2 2 2 2 2 2 3 3 3 4 4 4 5 6 5
3 4 4 4 3 4 4 4 4 4 4 3 4 3 3 3 4 4 3 2 1 1 2 2 2 2 3 4 5 4 3 2 2 2 3 4 4 4 4 4 5 6 5
4 4 4 4 4 4 4 4 5 5 4 4 4 4 4 4 6 6 6 3 2 2 3 2 2 2 2 2 4 5 5 6 5 3 4 4 4 4 4 4 4 5 6
4 4 4 5 5 4 4 5 5 4 4 4 4 4 4 5 7 7 7 4 3 3 3 3 3 3 3 3 2 2 3 3 4 3 3 4 4 3 3 4 5 6 5
5 5 5 5 5 5 5 5 5 4 4 4 4 4 4 5 8 8 7 3 3 4 4 3 3 3 5 6 3 3 4 4 5 7 7 7 9 9 7 4 4 5 6
5 5 4 4 5 6 6 5 4 4 5 4 4 4 5 5 8 9 8 3 4 4 3 4 6 6 7 7 3 3 4 4 4 4 5 7 6 6 8 3 2 3 5
4 4 4 5 5 5 5 4 4 4 4 4 4 4 5 6 8 10 10 4 4 4 3 3 3 7 8 8 6 4 6 6 3 3 4 4 3 2 2 2 2 3 4
4 4 4 5 5 4 5 4 4 4 4 4 4 4 4 5 7 8 11 10 8 4 4 3 3 6 7 8 7 7 9 7 3 3 3 3 3 3 3 3 4 4 5
4 5 4 4 4 4 5 5 4 5 4 4 4 5 4 4 5 10 11 11 11 6 4 6 7 8 8 6 8 9 7 3 3 3 4 4 3 3 3 3 4 5 6
5 5 4 4 4 4 4 4 4 5 5 5 5 5 4 4 4 4 4 5 8 6 5 6 9 9 7 7 7 5 3 3 3 3 4 3 3 3 3 3 4 4 5
5 5 4 4 4 4 4 5 5 6 7 6 6 5 5 5 7 8 5 4 4 4 3 3 3 3 3 3 3 3 3 3 3 3 3 4 4 4 4 4 4 4 5
5 4 4 3 4 3 3 4 7 7 9 10 9 7 6 8 8 10 10 10 10 9 6 3 4 4 4 4 4 3 3 3 3 3 3 4 4 5 5 5 5 5 7
5 5 4 4 4 4 4 4 4 5 7 9 10 10 10 9 9 10 10 10 10 9 5 4 5 5 4 4 4 4 4 3 3 3 4 4 4 4 5 5 5 6 7
5 6 5 4 4 4 5 5 4 4 4 4 7 11 11 11 10 10 10 7 6 6 5 5 5 4 4 4 4 4 3 3 3 4 4 4 4 4 5 6 6 7 7
5 4 4 4 4 4 4 4 4 5 5 4 3 5 10 9 9 10 9 5 5 5 5 5 5 4 4 4 4 4 4 4 4 4 4 4 4 5 6 6 6 10 10
5 7 6 4 4 4 4 4 5 5 5 4 4 4 4 4 4 5 5 5 5 5 5 5 4 4 4 4 4 4 4 4 4 4 4 5 5 5 6 7 7 7 7
4 5 7 5 4 5 5 5 5 5 5 5 5 6 8 5 5 5 5 5 5 5 5 5 4 4 4 4 4 4 5 5 5 5 5 5 5 6 6 7 7 8 8
4 4 4 4 4 4 5 5 5 5 5 5 4 5 10 5 4 4 5 5 5 4 4 4 4 4 4 4 4 4 5 5 5 5 5 5 6 6 7 7 7 7 8
4 4 4 4 4 7 6 4 4 5 5 5 4 4 4 4 5 5 5 4 4 4 3 3 4 4 4 4 4 4 5 6 5 5 6 6 6 6 7 8 9 9 9
4 5 5 5 4 4 5 5 5 5 5 5 5 5 5 5 5 5 4 3 3 3 3 3 4 5 6 4 4 4 5 5 5 6 7 7 7 7 7 8 8 9 9
5 5 5 5 5 5 5 5 5 5 5 5 5 5 4 4 4 4 3 3 4 4 4 4 4 4 6 7 6 5 8 11 10 7 6 7 8 8 8 9 8 9 9
5 5 5 5 5 5 5 5 5 5 5 5 4 4 4 4 4 4 4 4 4 4 4 4 5 5 6 6 7 9 11 13 13 12 8 6 7 7 8 8 9 9 9
Wind_Direction
202 200 208 206 199 196 193 200 198 194 189 205 265 334 350 355 351 14 17 17 25 15 12 20 12 8 6 6 8 5 359 347 285 299 335 342 349 348 348 345 337 336 339
200 199 205 205 201 199 201 201 193 197 197 194 200 235 293 336 350 15 10 13 26 20 8 8 358 4 10 1 4 0 357 350 304 297 313 334 340 340 340 339 341 341 333
196 199 206 208 204 208 207 200 193 195 198 194 192 207 223 235 271 292 277 342 5 8 8 5 353 1 359 350 356 352 341 339 330 303 307 319 323 332 334 332 336 332 332
201 205 213 214 209 208 204 197 194 193 196 201 203 205 207 211 223 242 239 248 269 285 329 335 350 11 357 343 343 339 339 336 331 321 312 318 317 321 338 337 333 336 329
208 217 222 216 206 202 200 198 197 197 202 201 204 211 205 205 216 213 231 242 249 259 248 236 222 220 299 307 319 326 335 325 320 318 314 319 323 337 340 332 326 323 315
219 226 223 210 204 204 204 200 199 203 204 200 208 212 212 216 219 225 231 240 245 258 264 260 248 255 273 295 302 305 302 297 297 296 299 303 310 316 319 324 324 329 319
229 229 220 210 208 209 206 204 207 208 205 206 210 209 213 216 225 234 239 240 238 247 253 257 265 262 280 271 291 298 298 296 289 279 280 285 296 307 315 315 313 304 292
237 233 224 216 215 210 206 212 213 208 207 210 212 212 214 219 226 234 240 238 234 240 242 239 243 248 259 267 266 278 278 278 281 278 263 270 280 283 282 290 291 295 284
243 237 229 219 218 211 212 216 214 209 213 213 210 210 217 228 229 235 235 229 235 242 239 233 237 240 264 275 272 268 276 278 285 282 281 284 291 299 302 302 307 310 306
244 242 233 220 217 217 218 216 211 207 213 210 215 212 216 225 232 235 232 223 235 243 243 235 241 248 262 271 265 264 274 279 289 296 293 293 291 293 301 291 285 296 300
246 241 232 221 218 218 215 211 208 207 209 212 220 224 221 225 236 234 232 222 227 238 241 238 236 254 264 268 268 256 270 284 281 282 284 283 283 279 284 277 265 260 273
246 241 234 227 222 214 209 212 206 199 208 219 224 235 230 227 228 234 235 235 236 236 240 236 238 258 266 269 269 270 280 289 278 274 276 276 275 275 271 267 266 262 257
248 244 239 232 224 214 209 211 208 203 209 219 220 231 236 220 225 234 239 241 244 241 240 248 255 262 268 269 268 270 276 268 260 265 270 270 262 263 269 275 275 272 272
249 248 239 230 229 221 214 207 208 210 214 219 222 229 233 226 218 217 224 237 244 248 250 254 259 261 262 261 265 264 251 244 252 255 266 270 274 276 278 280 287 295 290
250 247 240 231 227 226 221 217 217 218 213 217 223 220 222 233 226 219 217 220 217 227 235 238 235 240 240 242 244 242 238 247 257 255 266 277 283 285 286 286 284 288 283
252 247 238 231 227 224 229 247 237 231 236 235 231 227 233 235 236 232 232 236 239 241 241 234 237 237 238 240 243 244 239 242 246 256 265 272 280 284 287 287 284 283 284
247 245 241 231 225 222 220 226 250 251 242 242 239 238 238 238 238 236 236 237 240 240 238 233 236 238 237 234 235 238 243 246 248 254 261 265 272 277 281 284 284 284 283
248 244 240 233 226 223 222 223 225 234 248 255 245 242 243 241 239 236 235 235 239 234 229 233 236 237 235 231 233 241 248 251 253 257 259 263 266 272 276 277 278 279 282
249 244 236 231 225 226 227 229 230 232 237 242 243 243 237 237 237 236 232 226 228 231 231 234 235 233 233 229 231 237 244 251 253 253 256 259 261 264 270 272 275 279 283
248 244 240 232 226 228 229 231 233 233 235 233 232 233 215 209 220 224 221 221 228 233 233 234 233 230 228 227 231 237 245 250 251 252 256 258 260 262 268 272 274 278 278
245 244 240 238 231 229 230 232 232 231 235 237 236 228 219 215 221 221 220 222 226 230 231 232 231 227 226 227 227 234 242 249 249 252 256 259 262 265 268 271 274 275 278
240 241 235 235 236 235 238 234 231 232 234 237 242 236 230 225 219 222 225 228 226 224 222 225 229 225 220 221 226 235 243 246 248 249 254 258 261 264 267 270 273 275 277
238 241 243 241 238 243 248 239 234 235 236 235 231 226 223 220 220 223 226 226 223 222 219 217 224 231 229 225 222 227 238 245 246 247 253 260 263 265 267 270 272 276 277
238 239 241 242 239 237 239 240 237 235 234 236 230 224 222 222 224 227 224 221 222 222 218 217 224 230 233 235 234 233 237 244 247 249 248 254 261 265 266 269 272 273 275
237 240 242 241 239 237 238 239 237 234 236 236 230 226 224 221 222 222 218 220 222 225 226 226 227 230 232 236 241 244 250 256 260 261 254 255 259 262 266 269 270 273 274
243 243 243 240 237 235 235 238 238 235 236 235 228 223 220 219 220 219 218 219 222 225 227 230 231 234 239 243 245 251 260 265 268 270 269 262 261 263 266 270 271 273 274